Regional Weather Roundup
Issued by NWS

Home | Current Version | Previous Version | Graphics & Text | Print | Product List | Glossary On
Versions: 1 2 3 4 5 6 7 8 9 10 11 12 13 14 15 16 17 18 19 20 21 22 23 24 25 26 27 28 29 30 31 32 33 34 35 36 37 38 39 40 41 42 43 44 45 46 47 48 49 50
553
ASUS43 KBIS 121710
RWRND

NORTH DAKOTA REGIONAL WEATHER ROUNDUP
NATIONAL WEATHER SERVICE BISMARCK ND
1100 AM CST TUE DEC 12 2017

NOTE: "FAIR" INDICATES FEW OR NO CLOUDS BELOW 12,000 FEET WITH NO
SIGNIFICANT WEATHER AND/OR OBSTRUCTIONS TO VISIBILITY.


NDZ001>003-009>011-017-121800-
NORTHWEST NORTH DAKOTA

CITY           SKY/WX    TMP DP  RH WIND       PRES   REMARKS
WILLISTON      SUNNY     34  27  75 SW6       29.97F
MINOT          SUNNY     39  24  55 SW17      29.91F
MINOT AFB      CLOUDY    38  24  58 W17       29.89F
$$

NDZ018>021-031>035-040>046-121800-
SOUTHWEST NORTH DAKOTA

CITY           SKY/WX    TMP DP  RH WIND       PRES   REMARKS
BISMARCK       SUNNY     37  27  67 W9        30.01F
GARRISON         N/A     37  28  70 W14       29.94F
HETTINGER ARPT SUNNY     41  23  48 W15       30.05F
$$

NDZ004>008-012>016-024-026-027-054-121800-
NORTHEAST NORTH DAKOTA

CITY           SKY/WX    TMP DP  RH WIND       PRES   REMARKS
GRAND FORKS    CLOUDY    25  23  92 S12       29.93F WCI  14
DEVILS LAKE    CLOUDY    32  27  81 W10       29.92F
$$

NDZ022-023-025-028>030-036>039-047>053-121800-
SOUTHEAST NORTH DAKOTA

CITY           SKY/WX    TMP DP  RH WIND       PRES   REMARKS
FARGO          CLOUDY    28  24  85 S12       29.99F WCI  18
JAMESTOWN      CLOUDY    33  28  81 SW9       29.95F
$$





USA.gov is the U.S. government's official web portal to all federal, state and local government web resources and services.